Regional Weather Roundup
Issued by NWS

Home | Current Version | Previous Version | Graphics & Text | Print | Product List | Glossary On
Versions: 1 2 3 4 5 6 7 8 9 10 11 12 13 14 15 16 17 18 19 20 21 22 23 24 25 26 27 28 29 30 31 32 33 34 35 36 37 38 39 40 41 42 43 44 45 46 47 48 49 50
884
ASUS43 KFSD 251202
RWRSD

WEATHER ROUNDUP FOR SOUTH DAKOTA
NATIONAL WEATHER SERVICE SIOUX FALLS SD
700 AM CDT SUN SEP 25 2016

NOTE: "FAIR" INDICATES FEW OR NO CLOUDS BELOW 12,000 FEET WITH NO
SIGNIFICANT WEATHER AND/OR OBSTRUCTIONS TO VISIBILITY.


SDZ001>005-009-010-012>017-251300-
NORTHWEST AND NORTH CENTRAL SOUTH DAKOTA

CITY           SKY/WX    TMP DP  RH WIND       PRES   REMARKS
BUFFALO          N/A     46  39  76 W24       30.14R
FAITH            N/A     51  43  74 NW28G36   30.12R
MOBRIDGE       CLOUDY    54  48  80 NW23G30   29.94R
$$

SDZ012>016-024>037-041>051-057-063-072>074-251300-
SOUTHWEST AND SOUTH CENTRAL SOUTH DAKOTA

CITY           SKY/WX    TMP DP  RH WIND       PRES   REMARKS
RAPID CTY ARPT CLEAR     50  35  56 NW24G38   30.23R
PIERRE         CLOUDY    57  44  62 NW29G40   30.03R
CUSTER         CLEAR     41  29  62 NW8       30.28R
ELLSWORTH AFB  CLEAR     49  37  61 NW24G31   30.22R
PHILIP         CLOUDY    54  45  71 W26G40    30.15R
PINE RIDGE     CLEAR     46  43  89 W5        30.26R
WINNER         CLOUDY    59  45  59 NW23G35   30.08S
$$

SDZ004>011-016>023-039-040-251300-
NORTHEAST SOUTH DAKOTA

CITY           SKY/WX    TMP DP  RH WIND       PRES   REMARKS
ABERDEEN       MOCLDY    56  50  80 W21G31    29.84R
WATERTOWN      CLOUDY    55  50  83 SW18G29   29.87S
SISSETON         N/A     57  51  80 W20G25    29.79F
$$

SDZ017-020-022-023-036>040-048>070-251300-
SOUTHEAST SOUTH DAKOTA

CITY           SKY/WX    TMP DP  RH WIND       PRES   REMARKS
SIOUX FALLS    PTCLDY    53  46  77 SW6       29.98S
HURON          CLOUDY    57  47  69 W22G31    29.93S
CHAMBERLAIN    CLOUDY    59  47  63 NW26G33   30.04S
MITCHELL       CLOUDY    59  47  64 W13       29.99R
YANKTON        CLEAR     55  45  67 W15       30.03R
$$

ABBREVIATIONS USED IN REMARKS
   TC - TEMPERATURE IN CELSIUS
  WCI - WIND CHILL INDEX
   HX - HEAT INDEX
  VSB - VISIBILITY





USA.gov is the U.S. government's official web portal to all federal, state and local government web resources and services.